Galena, Illinois, United States (61036)
Lat: 42.42N, Lon: 90.43W
Wx Zone: ILZ001
Local Info
Past Weather Observations for Today

NOTE: This archive is for the closest National Weather Service station to Galena. Information may differ from the station used for current weather conditions.

Time Weather Temperature Dewpoint Humidity Pressure Winds Precip Visibility
18:53
Overcast
Light Rain
52°F / 11°C 50°F / 10°C 94% 29.68 in
(1005 mb)
Calm 0.13 in
(3.30 mm)
2 1/2SM
18:47
Overcast
Light Rain
52°F / 11°C 50°F / 10°C 94% 29.68 in
(1005 mb)
Calm 0.13 in
(3.30 mm)
2SM
18:14
Overcast
Rain
52°F / 11°C 50°F / 10°C 94% 29.65 in
(1004 mb)
Calm 0.03 in
(0.76 mm)
1 3/4SM
18:12
Overcast
Rain
52°F / 11°C 50°F / 10°C 94% 29.65 in
(1004 mb)
Calm 0.02 in
(0.51 mm)
2SM
18:02
Overcast
Light Rain
52°F / 11°C 50°F / 10°C 94% 29.65 in
(1004 mb)
Calm 0.01 in
(0.25 mm)
3SM
17:53
Overcast
Rain
52°F / 11°C 50°F / 10°C 94% 29.65 in
(1004 mb)
Calm 0.08 in
(2.03 mm)
2SM
17:50
Overcast
Rain
52°F / 11°C 50°F / 10°C 94% 29.65 in
(1004 mb)
Calm 0.08 in
(2.03 mm)
2SM
17:35
Overcast
Heavy Rain
52°F / 11°C 48°F / 9°C 88% 29.65 in
(1004 mb)
SSW 3.5 mph
(SSW 6 kph)
0.05 in
(1.27 mm)
1 3/4SM
17:28
Overcast
Rain
52°F / 11°C 48°F / 9°C 88% 29.68 in
(1005 mb)
SW 4.6 mph
(SW 7 kph)
0.03 in
(0.76 mm)
3SM
17:18
Overcast
Light Rain
52°F / 11°C 48°F / 9°C 88% 29.68 in
(1005 mb)
SSW 6.9 mph
(SSW 11 kph)
0.02 in
(0.51 mm)
2SM
16:53
Overcast
54°F / 12°C 48°F / 9°C 82% 29.65 in
(1004 mb)
SSE 12.7 mph
(SSE 20 kph)
- 10SM
15:53
Overcast
52°F / 11°C 46°F / 8°C 82% 29.65 in
(1004 mb)
SE 13.8 mph
(SE 22 kph)
0.01 in
(0.25 mm)
10SM
14:53
Overcast
Light Rain
52°F / 11°C 48°F / 9°C 88% 29.68 in
(1005 mb)
SSE 16.1 mph
(SSE 26 kph)
0.02 in
(0.51 mm)
3SM
13:53
Overcast
Light Rain
52°F / 11°C 48°F / 9°C 88% 29.68 in
(1005 mb)
SSE 20.7 mph
(SSE 33 kph)
0.02 in
(0.51 mm)
5SM
12:53
Overcast
Light Rain
52°F / 11°C 46°F / 8°C 82% 29.71 in
(1006 mb)
SSE 18.4 mph
(SSE 30 kph)
0.08 in
(2.03 mm)
4SM
11:53
Overcast
Rain
52°F / 11°C 45°F / 7°C 77% 29.74 in
(1007 mb)
S 11.5 mph
(S 19 kph)
0.00 in
(0.00 mm)
6SM
10:53
Partly Cloudy
55°F / 13°C 39°F / 4°C 55% 29.74 in
(1007 mb)
SSE 21.9 mph
(SSE 35 kph)
- 10SM
09:53
Mostly Cloudy
55°F / 13°C 39°F / 4°C 55% 29.74 in
(1007 mb)
SSE 25.3 mph
(SSE 41 kph)
- 10SM
08:53
Overcast
48°F / 9°C 37°F / 3°C 66% 29.77 in
(1008 mb)
SE 20.7 mph
(SE 33 kph)
- 10SM
07:53
Overcast
46°F / 8°C 37°F / 3°C 71% 29.8 in
(1009 mb)
SE 17.3 mph
(SE 28 kph)
- 10SM
06:53
Overcast
45°F / 7°C 36°F / 2°C 71% 29.83 in
(1010 mb)
SE 18.4 mph
(SE 30 kph)
0.01 in
(0.25 mm)
10SM
05:53
Overcast
Rain
43°F / 6°C 34°F / 1°C 71% 29.86 in
(1011 mb)
ESE 19.6 mph
(ESE 32 kph)
0.01 in
(0.25 mm)
5SM
05:40
Overcast
Thunder Storms
45°F / 7°C 34°F / 1°C 66% 29.86 in
(1011 mb)
SE 16.1 mph
(SE 26 kph)
- 10SM
04:53
Overcast
43°F / 6°C 32°F / 0°C 66% 29.86 in
(1011 mb)
SE 20.7 mph
(SE 33 kph)
- 10SM
03:53
Overcast
43°F / 6°C 32°F / 0°C 66% 29.89 in
(1012 mb)
ESE 18.4 mph
(ESE 30 kph)
- 10SM
02:53
Overcast
43°F / 6°C 30°F / -1°C 61% 29.92 in
(1013 mb)
E 17.3 mph
(E 28 kph)
- 10SM
01:53
Overcast
43°F / 6°C 30°F / -1°C 61% 29.95 in
(1014 mb)
E 17.3 mph
(E 28 kph)
- 10SM
00:53
Overcast
43°F / 6°C 34°F / 1°C 71% 29.98 in
(1015 mb)
E 15 mph
(E 24 kph)
- 10SM
Time Weather Temperature Dewpoint Humidity Pressure Winds Precip Visibility


Weather for websites

WeatherForYou.com, LLC is not responsible for any damages or problems caused by this service. Current weather conditions are obtained from the closest station including government and personal stations which may have varying degrees of accuracy. Weather forecasts are derived from the NOAA NDFD. Like all things, this site belongs to Jesus Christ... He just trusts me to maintain it. If you have any questions or comments email webmaster@weatherforyou.com

Copyright © 2014, WeatherForYou.com LLC. All rights reserved.